SCP
0 0 0 0 -0 -0 0 0 0 0 -0 0 -0 -0 0 0 0 -0 -0 -0 -0 -0 -0 -0 -0 -0 -0 -0 -0 -0 -0 -0
0 0 0 0 0 -0 0 0 0 0 -0 0 -0 -0 0 0 0 0 -0 -0 -0 -0 -0 -0 -0 -0 -0 -0 -0 -0 -0 -0
0 0 -0 -0 0 0 0 0 0 0 0 0 0 -0 0 0 0 -0 -0 -0 -0 -0 -0 -0 -0 -0 -0 -0 -0 -0 -0 0
-0 0 0 0 0 0 -0 0 0 0 0 -0 0 0 0 0 -0 -0 -0 -0 -0 -0 -0 -0 -0 -0 -0 -0 0 0 0 0
0 0 0 0 0 0 0 0 0 0 -0 0 -0 0 0 -0 -0 0 0 -0 -0 0 0 0 0 0 0 0 0 0 0 0
0 0 0 0 0 0 0 0 0 -0 0 0 0 -0 0 -0 0 0 -0 0 -0 -0 -0 0 -0 0 0 0 0 0 0 0
0 0 0 0 0 0 0 0 0 0 0 0 -0 -0 0 -0 0 0 -0 -0 -0 0 0 0 0 0 0 0 0 0 0 0
0 0 0 0 0 0 0 0 0 0 -0 -0 0 0 -0 -0 -0 -0 -0 -0 0 0 0 0 0 0 0 0 0 0 0 0
0 0 0 0 0 0 0 0 0 0 0 0 0 -0 0 -0 -0 -0 -0 -0 0 0 0 0 0 0 0 1 1 0 0 0
0 0 0 0 0 0 0 0 0 0 0 0 0 0 0 0 0 -0 -0 0 0 0 1 1 1 1 1 1 1 1 1 1
0 0 0 0 0 0 0 0 0 0 0 0 0 0 0 0 0 0 0 0 1 1 1 1 1 2 2 2 2 2 1 0
0 0 0 0 0 0 0 0 0 0 0 0 0 0 0 0 0 0 0 0 1 1 1 2 1 2 1 1 1 1 0 0
0 0 0 0 0 0 0 0 0 0 0 0 0 0 0 0 0 1 1 1 1 2 2 1 1 1 1 1 0 0 0 0
0 0 0 0 0 0 0 0 0 0 0 0 0 1 1 0 0 0 0 0 1 1 1 1 1 1 1 0 0 0 0 0
0 0 0 0 0 0 0 0 0 0 0 0 0 1 1 1 0 1 0 0 1 1 0 0 0 0 0 0 0 0 0 0
0 0 0 0 0 0 0 0 0 0 0 0 0 1 1 1 1 1 1 1 1 1 0 0 0 0 0 0 0 0 0 0
0 0 0 0 0 0 0 0 0 1 1 1 1 1 1 1 1 1 1 1 1 0 0 0 0 0 0 0 0 0 0 0
0 0 0 0 0 0 0 0 0 1 2 2 2 2 2 2 1 1 0 0 1 0 0 0 0 0 0 0 0 0 0 0
0 0 0 -0 0 0 0 0 0 1 1 1 1 1 1 1 1 0 0 1 0 0 0 0 0 0 0 0 0 0 0 0
Wind_Speed_500mb
7 6 11 11 12 4 5 2 7 5 10 12 5 1 4 8 21 34 40 49 45 40 39 42 45 40 38 33 33 42 47 48
5 11 11 12 21 7 4 6 8 2 10 9 4 10 6 9 17 22 29 34 42 40 37 35 39 38 38 38 33 31 40 45
2 12 16 10 10 5 5 4 6 8 9 9 12 12 17 16 17 24 32 36 36 36 34 34 37 38 35 38 39 38 38 37
27 5 5 7 11 20 12 9 1 6 10 5 13 10 17 22 23 21 22 24 25 26 28 29 29 34 36 36 41 38 37 38
9 10 6 13 12 11 7 6 13 11 7 4 14 17 24 24 22 25 24 22 21 24 27 27 25 24 27 29 30 39 43 42
21 19 4 11 14 18 22 11 13 18 12 13 20 22 21 24 27 28 24 22 21 22 24 23 24 22 22 23 24 28 35 40
27 22 13 16 20 27 26 19 19 15 18 23 20 19 27 22 25 27 26 29 28 25 23 25 26 24 22 22 20 21 24 27
12 16 21 24 23 29 23 13 15 12 17 17 14 11 18 28 18 22 24 27 30 28 25 28 30 29 26 26 25 24 23 23
18 14 9 18 32 35 25 17 20 17 16 11 9 18 31 32 32 37 39 34 33 32 27 30 31 29 21 19 22 22 22 27
7 3 21 16 5 20 38 31 30 13 13 20 20 28 30 40 43 43 43 41 34 32 30 29 27 25 24 23 23 25 25 31
10 16 12 17 9 11 22 30 28 26 22 18 7 8 30 38 41 39 39 35 33 32 29 27 25 25 23 22 21 23 22 25
8 15 25 10 5 2 2 17 14 26 19 15 13 9 16 13 25 29 27 25 29 32 33 32 28 24 24 20 16 18 24 32
24 23 15 6 6 3 13 4 2 15 21 20 13 8 6 11 20 18 16 21 28 31 31 28 26 22 16 12 14 18 24 29
12 16 25 10 3 11 12 23 18 17 17 22 17 18 17 20 23 24 22 24 24 25 25 22 17 13 10 10 12 14 15 17
11 3 4 10 14 21 23 34 32 29 17 16 26 25 27 31 30 27 24 27 29 25 22 18 12 8 8 7 4 1 6 11
6 5 12 20 18 23 23 32 42 34 25 24 31 34 32 31 32 29 28 28 26 23 18 15 15 14 11 9 8 6 9 14
11 16 13 9 35 26 29 32 35 22 17 21 26 31 33 34 30 28 26 23 19 15 15 16 16 14 12 11 9 10 14 19
18 16 18 46 39 32 42 36 35 22 11 20 21 26 28 29 28 26 23 22 21 19 17 17 18 16 13 14 11 10 9 15
46 45 39 44 36 37 28 23 27 22 17 15 19 23 29 29 26 22 22 22 20 19 16 17 23 15 16 17 13 9 4 6
Wind_Direction_500mb
212 165 187 150 202 325 169 135 261 341 277 268 89 253 47 117 156 184 197 206 211 214 216 214 216 217 216 212 213 214 219 220
112 148 73 208 142 179 192 232 266 231 288 296 206 186 191 170 178 184 195 201 208 212 213 216 218 221 225 223 220 223 222 224
296 210 191 155 195 83 129 295 276 293 315 218 255 191 197 193 193 188 199 202 207 213 215 219 224 225 224 227 229 229 229 229
245 161 257 236 218 194 234 202 45 309 275 234 242 228 191 203 194 190 188 193 197 209 217 219 221 226 230 229 226 232 236 236
239 161 157 218 183 198 160 137 199 240 240 235 264 256 224 218 199 198 189 185 187 199 212 219 225 232 233 233 235 234 238 242
240 250 122 180 191 194 216 216 202 230 248 221 223 237 233 217 204 214 215 206 211 217 221 217 217 222 230 242 247 247 245 247
253 268 254 235 191 187 206 206 206 232 218 257 259 237 233 218 198 206 217 220 221 221 223 220 219 221 232 238 241 249 253 258
268 264 234 245 223 195 215 181 231 195 244 241 268 217 241 247 240 227 229 223 224 218 228 225 225 229 231 244 249 253 250 252
258 335 200 246 217 188 192 211 218 197 230 169 227 227 234 231 226 229 232 235 235 227 236 229 224 229 229 240 253 251 239 258
274 188 228 232 333 240 189 203 211 255 234 201 234 239 242 231 233 237 234 237 240 226 229 225 218 220 226 238 240 244 251 259
244 237 296 284 163 192 194 222 209 223 239 241 206 270 263 245 241 239 235 234 229 223 222 219 217 221 228 225 218 233 254 264
198 240 250 242 139 63 200 237 212 221 238 215 151 221 243 271 218 214 219 223 216 218 220 222 219 211 209 215 227 249 263 273
226 239 245 306 313 164 213 235 41 244 244 176 198 227 152 163 171 177 180 194 201 200 204 201 201 204 212 234 261 277 284 284
217 236 241 29 236 233 346 314 312 307 249 208 181 154 146 140 152 162 169 170 177 180 178 180 186 195 235 260 275 278 283 286
231 218 38 313 289 312 314 298 304 308 303 204 167 159 148 140 140 141 147 154 158 164 167 171 183 195 215 215 202 186 329 315
285 151 304 320 345 332 324 318 310 292 278 206 185 168 155 148 146 147 152 157 162 165 172 181 183 183 181 160 135 90 54 25
287 291 323 119 346 336 329 325 329 304 249 207 183 159 155 153 155 160 165 170 176 184 193 195 183 180 173 168 152 101 63 57
275 316 314 296 313 322 325 322 333 315 253 180 174 163 159 159 168 177 188 197 198 199 203 204 196 194 191 177 174 129 69 65
267 274 281 287 290 313 330 327 323 318 260 219 172 167 173 180 184 192 196 197 198 196 205 207 195 212 212 198 198 179 151 94
Wind_Speed_850mb
7 6 11 11 12 4 5 2 7 5 10 12 5 1 4 8 21 34 40 49 45 40 39 42 45 40 38 33 33 42 47 48
5 11 11 12 21 7 4 6 8 2 10 9 4 10 6 9 17 22 29 34 42 40 37 35 39 38 38 38 33 31 40 45
2 12 16 10 10 5 5 4 6 8 9 9 12 12 17 16 17 24 32 36 36 36 34 34 37 38 35 38 39 38 38 37
27 5 5 7 11 20 12 9 1 6 10 5 13 10 17 22 23 21 22 24 25 26 28 29 29 34 36 36 41 38 37 38
9 10 6 13 12 11 7 6 13 11 7 4 14 17 24 24 22 25 24 22 21 24 27 27 25 24 27 29 30 39 43 42
21 19 4 11 14 18 22 11 13 18 12 13 20 22 21 24 27 28 24 22 21 22 24 23 24 22 22 23 24 28 35 40
27 22 13 16 20 27 26 19 19 15 18 23 20 19 27 22 25 27 26 29 28 25 23 25 26 24 22 22 20 21 24 27
12 16 21 24 23 29 23 13 15 12 17 17 14 11 18 28 18 22 24 27 30 28 25 28 30 29 26 26 25 24 23 23
18 14 9 18 32 35 25 17 20 17 16 11 9 18 31 32 32 37 39 34 33 32 27 30 31 29 21 19 22 22 22 27
7 3 21 16 5 20 38 31 30 13 13 20 20 28 30 40 43 43 43 41 34 32 30 29 27 25 24 23 23 25 25 31
10 16 12 17 9 11 22 30 28 26 22 18 7 8 30 38 41 39 39 35 33 32 29 27 25 25 23 22 21 23 22 25
8 15 25 10 5 2 2 17 14 26 19 15 13 9 16 13 25 29 27 25 29 32 33 32 28 24 24 20 16 18 24 32
24 23 15 6 6 3 13 4 2 15 21 20 13 8 6 11 20 18 16 21 28 31 31 28 26 22 16 12 14 18 24 29
12 16 25 10 3 11 12 23 18 17 17 22 17 18 17 20 23 24 22 24 24 25 25 22 17 13 10 10 12 14 15 17
11 3 4 10 14 21 23 34 32 29 17 16 26 25 27 31 30 27 24 27 29 25 22 18 12 8 8 7 4 1 6 11
6 5 12 20 18 23 23 32 42 34 25 24 31 34 32 31 32 29 28 28 26 23 18 15 15 14 11 9 8 6 9 14
11 16 13 9 35 26 29 32 35 22 17 21 26 31 33 34 30 28 26 23 19 15 15 16 16 14 12 11 9 10 14 19
18 16 18 46 39 32 42 36 35 22 11 20 21 26 28 29 28 26 23 22 21 19 17 17 18 16 13 14 11 10 9 15
46 45 39 44 36 37 28 23 27 22 17 15 19 23 29 29 26 22 22 22 20 19 16 17 23 15 16 17 13 9 4 6
Wind_Direction_850mb
212 165 187 150 202 325 169 135 261 341 277 268 89 253 47 117 156 184 197 206 211 214 216 214 216 217 216 212 213 214 219 220
112 148 73 208 142 179 192 232 266 231 288 296 206 186 191 170 178 184 195 201 208 212 213 216 218 221 225 223 220 223 222 224
296 210 191 155 195 83 129 295 276 293 315 218 255 191 197 193 193 188 199 202 207 213 215 219 224 225 224 227 229 229 229 229
245 161 257 236 218 194 234 202 45 309 275 234 242 228 191 203 194 190 188 193 197 209 217 219 221 226 230 229 226 232 236 236
239 161 157 218 183 198 160 137 199 240 240 235 264 256 224 218 199 198 189 185 187 199 212 219 225 232 233 233 235 234 238 242
240 250 122 180 191 194 216 216 202 230 248 221 223 237 233 217 204 214 215 206 211 217 221 217 217 222 230 242 247 247 245 247
253 268 254 235 191 187 206 206 206 232 218 257 259 237 233 218 198 206 217 220 221 221 223 220 219 221 232 238 241 249 253 258
268 264 234 245 223 195 215 181 231 195 244 241 268 217 241 247 240 227 229 223 224 218 228 225 225 229 231 244 249 253 250 252
258 335 200 246 217 188 192 211 218 197 230 169 227 227 234 231 226 229 232 235 235 227 236 229 224 229 229 240 253 251 239 258
274 188 228 232 333 240 189 203 211 255 234 201 234 239 242 231 233 237 234 237 240 226 229 225 218 220 226 238 240 244 251 259
244 237 296 284 163 192 194 222 209 223 239 241 206 270 263 245 241 239 235 234 229 223 222 219 217 221 228 225 218 233 254 264
198 240 250 242 139 63 200 237 212 221 238 215 151 221 243 271 218 214 219 223 216 218 220 222 219 211 209 215 227 249 263 273
226 239 245 306 313 164 213 235 41 244 244 176 198 227 152 163 171 177 180 194 201 200 204 201 201 204 212 234 261 277 284 284
217 236 241 29 236 233 346 314 312 307 249 208 181 154 146 140 152 162 169 170 177 180 178 180 186 195 235 260 275 278 283 286
231 218 38 313 289 312 314 298 304 308 303 204 167 159 148 140 140 141 147 154 158 164 167 171 183 195 215 215 202 186 329 315
285 151 304 320 345 332 324 318 310 292 278 206 185 168 155 148 146 147 152 157 162 165 172 181 183 183 181 160 135 90 54 25
287 291 323 119 346 336 329 325 329 304 249 207 183 159 155 153 155 160 165 170 176 184 193 195 183 180 173 168 152 101 63 57
275 316 314 296 313 322 325 322 333 315 253 180 174 163 159 159 168 177 188 197 198 199 203 204 196 194 191 177 174 129 69 65
267 274 281 287 290 313 330 327 323 318 260 219 172 167 173 180 184 192 196 197 198 196 205 207 195 212 212 198 198 179 151 94